This is the latest recevied weather packets stored in our database for station/object E20ZNR-1. If no packets are shown the sender has not sent any weather packets the latest 1 day(s).
| Time | Temp. | Humidity | Pressure | Rain* | Wind** | Luminosity | Snow |
|---|---|---|---|---|---|---|---|
| 1778042890 | 38.89° C | 48% | 1005 hPa | - | - | 0 W/m² | - |
| 1778041965 | 39.44° C | 54% | 1005 hPa | - | - | 0 W/m² | - |
| 1778041040 | 37.22° C | 53% | 1006 hPa | - | - | 0 W/m² | - |
| 1778040115 | 36.67° C | 54% | 1006 hPa | - | - | 0 W/m² | - |
| 1778039190 | 36.67° C | 54% | 1006 hPa | - | - | 0 W/m² | - |
| 1778038265 | 38.89° C | 50% | 1006 hPa | - | - | 0 W/m² | - |
| 1778037340 | 37.78° C | 59% | 1006 hPa | - | - | 0 W/m² | - |
| 1778036414 | 36.11° C | 60% | 1007 hPa | - | - | 0 W/m² | - |
| 1778035489 | 36.11° C | 62% | 1007 hPa | - | - | 0 W/m² | - |
| 1778034565 | 36.11° C | 61% | 1007 hPa | - | - | 0 W/m² | - |
| 1778032714 | 38.33° C | 53% | 1007 hPa | - | - | 0 W/m² | - |
| 1778030862 | 45° C | 38% | 1006 hPa | - | - | 0 W/m² | - |
| 1778029936 | 43.33° C | 41% | 1006 hPa | - | - | 0 W/m² | - |
| 1778029012 | 42.78° C | 50% | 1006 hPa | - | - | 0 W/m² | - |
| 1778028087 | 36.11° C | 60% | 1006 hPa | - | - | 0 W/m² | - |
| 1778027162 | 35.56° C | 65% | 1006 hPa | - | - | 0 W/m² | - |
| 1778026237 | 33.33° C | 76% | 1006 hPa | - | - | 0 W/m² | - |
| 1778022536 | 26.67° C | 99% | 1005 hPa | - | - | 0 W/m² | - |
| 1778018834 | 26.67° C | 99% | 1005 hPa | - | - | 0 W/m² | - |
| 1778017909 | 26.67° C | 99% | 1005 hPa | - | - | 0 W/m² | - |
* Rain since midnight (hover to see other rain measurements)
** Current wind speed in m/s (hover to see current wind gust speed)